CW1459 Weather Reports


time (UTC)temp
F
wind
direction
speed
knots
gust
knots
rain 1hr
in
rain 24hr
in
rain mn
in
humidity
%
barometer
mb
20260901131313 79 224 1.7 4.3 0.00 0.00 0.00 84 1016.0
20260901130334 77 126 2.6 5.2 0.00 0.00 0.00 87 1016.0
20260901125314 76 151 0.9 1.7 0.00 0.00 0.00 88 1016.2
20260901124315 76 204 0.9 1.7 0.00 0.00 0.00 88 1016.4
20260901123352 76 165 1.7 2.6 0.00 0.00 0.00 89 1016.3
20260901122314 75 170 1.7 2.6 0.00 0.00 0.00 90 1016.4
20260901121337 75 157 0.9 2.6 0.00 0.00 0.00 91 1016.4
20260901120316 74 202 0.9 2.6 0.00 0.00 0.00 92 1016.3
20260901115358 74 202 0.9 1.7 0.00 0.00 0.00 92 1016.3
20260901114314 73 202 0.0 1.7 0.00 0.00 0.00 92 1016.2
20260901113334 73 202 0.9 2.6 0.00 0.00 0.00 92 1016.2
20260901112352 73 150 0.0 0.0 0.00 0.00 0.00 92 1016.0
20260901111312 72 150 0.0 0.9 0.00 0.00 0.00 92 1015.8
20260901110313 72 150 0.0 1.7 0.00 0.00 0.00 91 1015.8
20260901105313 73 167 0.9 2.6 0.00 0.00 0.00 91 1015.7
20260901104339 73 167 0.9 1.7 0.00 0.00 0.00 90 1015.8
20260901103321 73 167 0.9 1.7 0.00 0.00 0.00 90 1015.6
20260901102314 73 167 0.0 0.9 0.00 0.00 0.00 90 1015.6
20260901101340 74 167 0.0 0.9 0.00 0.00 0.00 89 1015.6
20260901100312 74 167 0.0 0.9 0.00 0.00 0.00 89 1015.7
20260901095337 74 167 0.0 1.7 0.00 0.00 0.00 89 1015.7
20260901094312 74 167 0.0 2.6 0.00 0.00 0.00 89 1015.7
20260901093313 74 192 0.9 1.7 0.00 0.00 0.00 89 1015.7
20260901092342 74 180 1.7 3.5 0.00 0.00 0.00 89 1015.6
20260901091316 74 165 1.7 3.5 0.00 0.00 0.00 89 1015.6
20260901090402 74 184 1.7 4.3 0.00 0.00 0.00 89 1015.5
20260901085329 74 200 0.9 3.5 0.00 0.00 0.00 90 1015.5
20260901084332 74 153 0.9 3.5 0.00 0.00 0.00 90 1015.5
20260901083328 74 169 1.7 2.6 0.00 0.00 0.00 90 1015.5
20260901082344 74 190 0.0 1.7 0.00 0.00 0.00 90 1015.9
20260901081333 74 190 0.0 1.7 0.00 0.00 0.00 90 1015.9
20260901080347 74 190 0.0 0.0 0.00 0.00 0.00 90 1015.9
20260901075330 74 190 0.0 2.6 0.00 0.00 0.00 90 1015.9
20260901074318 74 186 1.7 4.3 0.00 0.00 0.00 90 1015.8
20260901073331 74 213 0.0 1.7 0.00 0.00 0.00 90 1015.7
20260901072316 74 169 0.9 1.7 0.00 0.00 0.00 91 1015.6
20260901071323 74 210 1.7 2.6 0.00 0.00 0.00 91 1015.6
20260901070336 74 215 0.9 2.6 0.00 0.00 0.00 92 1015.7
20260901065318 74 188 0.9 2.6 0.00 0.00 0.00 93 1015.6
20260901064316 73 169 0.9 2.6 0.00 0.00 0.00 93 1015.9
20260901063317 73 213 1.7 4.3 0.00 0.00 0.00 93 1016.0
20260901062336 73 169 0.9 1.7 0.00 0.00 0.00 93 1016.2
20260901061318 73 169 0.0 0.9 0.00 0.00 0.00 93 1016.3
20260901060318 73 169 0.0 0.9 0.00 0.00 0.00 92 1016.3
20260901055315 73 169 0.9 1.7 0.00 0.00 0.00 92 1016.4
20260901054337 73 169 0.0 0.9 0.00 0.00 0.00 92 1016.5
20260901053316 74 169 0.0 0.9 0.00 0.00 0.00 92 1016.5
20260901052318 74 169 0.0 0.0 0.00 0.00 0.00 92 1016.4
20260901051317 74 169 0.0 0.9 0.00 0.00 0.00 92 1016.5
20260901050336 74 169 0.0 0.9 0.00 0.00 0.00 92 1016.5
20260901045339 74 169 0.0 0.0 0.00 0.00 0.00 92 1016.4
20260901044339 74 169 0.0 0.0 0.00 0.00 0.00 91 1016.3
20260901043328 74 169 0.0 0.9 0.00 0.00 0.00 91 1016.4
20260901042334 74 169 0.0 2.6 0.00 0.00 0.00 91 1016.4
20260901041326 74 169 0.0 1.7 0.00 0.00 0.00 91 1016.5
20260901040353 74 164 0.9 1.7 0.00 0.00 0.00 91 1016.6
20260901035320 73 219 0.0 0.9 0.00 0.00 0.00 91 1016.7
20260901034316 73 219 0.0 0.9 0.00 0.00 0.00 91 1016.9
20260901033353 73 219 0.0 0.9 0.00 0.00 0.00 91 1016.9
20260901032334 73 297 0.0 0.0 0.00 0.00 0.00 91 1017.0
20260901031336 73 297 0.0 0.9 0.00 0.00 0.00 91 1017.0
20260901030336 73 297 0.0 0.0 0.00 0.00 0.00 90 1017.0
20260901025340 73 297 0.0 0.0 0.00 0.00 0.00 90 1017.1
20260901024334 73 297 0.0 0.9 0.00 0.00 0.00 90 1017.2
20260901023336 73 297 0.0 0.9 0.00 0.00 0.00 90 1017.2
20260901022314 73 297 0.0 0.9 0.00 0.00 0.00 90 1017.3
20260901021314 73 297 0.0 0.9 0.00 0.00 0.00 89 1017.3
20260901020338 73 297 0.0 0.9 0.00 0.00 0.00 89 1017.1
20260901015329 73 297 0.0 0.9 0.00 0.00 0.00 88 1017.1
20260901014336 74 297 0.0 0.9 0.00 0.00 0.00 87 1017.1
20260901013316 74 297 0.0 0.9 0.00 0.00 0.00 86 1017.0
20260901012317 74 297 0.0 0.9 0.00 0.00 0.00 86 1016.8
20260901011321 75 297 0.0 2.6 0.00 0.00 0.00 85 1016.7
20260901010332 75 242 0.9 2.6 0.00 0.00 0.00 84 1016.6
20260901005321 75 188 0.9 2.6 0.00 0.00 0.00 84 1016.3
20260901004357 75 160 2.6 4.3 0.00 0.00 0.00 84 1016.3
20260901003358 76 163 0.0 0.9 0.00 0.00 0.00 83 1016.4
20260901002316 76 163 0.0 5.2 0.00 0.00 0.00 83 1016.4
20260901001342 76 154 3.5 7.0 0.00 0.00 0.00 82 1016.4
20260901000336 76 121 1.7 3.5 0.00 0.00 0.00 81 1016.4
20260831235341 76 111 1.7 5.2 0.00 0.00 0.00 80 1016.4
20260831234315 77 110 2.6 6.1 0.00 0.00 0.00 79 1016.6
20260831233317 78 82 4.3 11.3 0.00 0.00 0.00 77 1017.0
20260831232341 80 54 1.7 14.8 0.00 0.00 0.00 74 1017.1
20260831231315 82 319 2.6 3.5 0.00 0.00 0.00 77 1017.1
20260831230333 82 238 0.9 1.7 0.00 0.00 0.00 78 1016.7
20260831225335 82 143 1.7 3.5 0.00 0.00 0.00 75 1016.8
20260831224331 83 161 1.7 6.1 0.00 0.00 0.00 74 1016.7
20260831223335 84 173 3.5 6.1 0.00 0.00 0.00 74 1016.6
20260831222333 83 162 2.6 6.1 0.00 0.00 0.00 75 1016.8
20260831221333 84 183 2.6 7.0 0.00 0.00 0.00 73 1016.8
20260831220315 84 161 2.6 4.3 0.00 0.00 0.00 74 1017.0
20260831215314 83 186 2.6 7.0 0.00 0.00 0.00 74 1016.9
20260831214337 84 161 2.6 5.2 0.00 0.00 0.00 73 1016.9
20260831213359 84 175 1.7 5.2 0.00 0.00 0.00 74 1017.0
20260831212357 82 126 1.7 4.3 0.00 0.00 0.00 75 1017.1
20260831211313 82 146 4.3 7.0 0.00 0.00 0.00 75 1017.1
20260831210321 82 157 2.6 4.3 0.00 0.00 0.00 77 1017.1
20260831205350 82 184 1.7 4.3 0.00 0.00 0.00 77 1017.3
20260831204332 81 132 1.7 2.6 0.00 0.00 0.00 79 1017.3
20260831203357 81 161 0.9 2.6 0.00 0.00 0.00 80 1017.4
20260831202321 81 130 1.7 2.6 0.00 0.00 0.00 78 1017.6
20260831201315 81 136 1.7 3.5 0.00 0.00 0.00 77 1017.6
20260831200313 81 128 1.7 3.5 0.00 0.00 0.00 77 1017.6
20260831195336 81 159 1.7 3.5 0.00 0.00 0.00 76 1017.7
20260831194313 82 136 1.7 4.3 0.00 0.00 0.00 75 1017.8
20260831193334 82 133 0.9 2.6 0.00 0.00 0.00 74 1017.8
20260831192315 83 127 1.7 6.1 0.00 0.00 0.00 72 1017.8
20260831191316 83 159 3.5 6.1 0.00 0.00 0.00 72 1017.9
20260831190318 83 148 3.5 5.2 0.00 0.00 0.00 74 1018.0
20260831185314 82 166 2.6 4.3 0.00 0.00 0.00 74 1018.1
20260831184337 81 99 3.5 6.1 0.00 0.00 0.00 75 1018.1
20260831183317 81 198 1.7 6.1 0.00 0.00 0.00 77 1018.1
20260831182319 81 134 2.6 4.3 0.00 0.00 0.00 75 1018.1
20260831181313 81 200 0.9 2.6 0.00 0.00 0.00 75 1018.4
20260831180315 81 252 1.7 2.6 0.00 0.00 0.00 73 1018.3
20260831175318 82 132 0.0 4.3 0.00 0.00 0.00 73 1018.4
20260831174322 82 144 1.7 5.2 0.00 0.00 0.00 72 1018.4
20260831173328 82 221 1.7 3.5 0.00 0.00 0.00 70 1018.4
20260831172336 82 204 1.7 4.3 0.00 0.00 0.00 70 1018.5
20260831171335 82 172 1.7 5.2 0.00 0.00 0.00 73 1018.4
20260831170313 83 170 2.6 5.2 0.00 0.00 0.00 71 1018.4
20260831165359 83 141 1.7 5.2 0.00 0.00 0.00 69 1018.5
20260831164329 82 200 0.9 2.6 0.00 0.00 0.00 74 1018.5
20260831163356 81 293 2.6 4.3 0.00 0.00 0.00 73 1018.7
20260831162315 81 286 1.7 3.5 0.00 0.00 0.00 73 1018.8
20260831161317 80 289 1.7 3.5 0.00 0.00 0.00 74 1018.8
20260831160359 80 268 0.0 2.6 0.00 0.00 0.00 74 1018.5
20260831155317 80 292 1.7 3.5 0.00 0.00 0.00 74 1018.7
20260831154335 81 290 1.7 3.5 0.00 0.00 0.00 73 1018.6
20260831153335 81 295 1.7 2.6 0.00 0.00 0.00 73 1018.8
20260831152337 81 339 0.9 6.1 0.00 0.00 0.00 73 1018.9
20260831151319 82 290 1.7 3.5 0.00 0.00 0.00 73 1019.0
20260831150339 81 259 0.9 3.5 0.00 0.00 0.00 77 1019.0
20260831145313 79 271 1.7 3.5 0.00 0.00 0.00 80 1019.0
20260831144314 78 288 1.7 3.5 0.00 0.00 0.00 79 1019.1
20260831143330 78 315 2.6 4.3 0.00 0.00 0.00 82 1019.0
20260831142336 77 339 1.7 2.6 0.00 0.00 0.00 85 1019.0
20260831141321 77 286 0.9 2.6 0.00 0.00 0.00 85 1019.0
20260831140334 77 286 1.7 2.6 0.00 0.00 0.00 85 1019.1
20260831135348 76 192 0.0 2.6 0.00 0.00 0.00 90 1019.1
20260831134314 75 214 0.9 2.6 0.00 0.00 0.00 91 1019.1
20260831133314 74 260 0.0 1.7 0.00 0.00 0.00 92 1019.1
20260831132316 74 260 0.9 2.6 0.00 0.00 0.00 92 1019.2